sat.trackr.live / text

‹ back to catalog

STARLINK-34984

NORAD 65290 · 2025-184T

PAYLOAD ACTIVE UNKNOWN

§ Identity

Operator
Country
US
Launch date
2025-08-22
Launch site
AFWTR
Launch vehicle
Mass (kg)
RCS (m²)

Purposes: comms

External: N2YO · Heavens-Above · Gunter

§ Orbital elements

Epoch: 2026-09-19T09:16:54.406848Z

Period
93.91 min
Inclination
97.2826°
Eccentricity
0.0001216
Mean motion
15.33447002 rev/d
Perigee alt
464.7 km
Apogee alt
466.4 km
Semi-major
6,843.7 km
B*
4.1459e-4
RAAN
310.3709°
Arg perigee
92.6397°
Mean anomaly
267.4985°
Rev number
6,055

§ Raw data

STARLINK-349841 65290U 25184T   26262.38674082  .00013334  00000+0  41459-3 0  99972 65290  97.2826 310.3709 0001216  92.6397 267.4985 15.33447002 60553

JSON: /api/v1/satellites/65290 · /tle

For live sub-satellite position, see the globe view (requires WebGL).

§ Visibility from observer

Set your observer location to see the next 7 days of passes ≥ 10°. The values pass through the URL so the page stays shareable.

No JS? Fill the form by hand. The geolocation button needs JavaScript.